• In Belarus
  • List of Countries
  • For 7 days
  • Water Temperature
  • Satellite Maps
  • Weather Map
  • Weather Widgets
  • user-avatar
    Login

    Hourly Weather Globice

    Today, 23 February, Saturday

    Time Temperature Precipitation Wind Pressure Humidity
    00:00 -3°C° 0 mm 2 mps 776 mmHg 51%
    01:00 -3°C° 0 mm 2 mps 777 mmHg 49%
    02:00 -4°C° 0 mm 2 mps 776 mmHg 48%
    03:00 -2°C° 0 mm 1 mps 776 mmHg 48%
    04:00 -2°C° 0 mm 1 mps 776 mmHg 47%
    05:00 -2°C° 0 mm 1 mps 776 mmHg 47%
    06:00 -2°C° 0 mm 1 mps 776 mmHg 47%
    07:00 -2°C° 0 mm 1 mps 777 mmHg 47%
    08:00 -2°C° 0 mm 1 mps 776 mmHg 42%
    09:00 -3°C° 0 mm 2 mps 776 mmHg 37%
    10:00 -2°C° 0 mm 2 mps 776 mmHg 32%
    11:00 -1°C° 0 mm 2 mps 776 mmHg 29%
    12:00 +1°C° 0 mm 2 mps 776 mmHg 27%
    13:00 +2°C° 0 mm 2 mps 775 mmHg 24%
    14:00 +2°C° 0 mm 2 mps 775 mmHg 25%
    15:00 +2°C° 0 mm 2 mps 775 mmHg 26%
    16:00 +2°C° 0 mm 2 mps 774 mmHg 27%
    17:00 +1°C° 0 mm 2 mps 774 mmHg 30%
    18:00 -1°C° 0 mm 2 mps 774 mmHg 34%
    19:00 -2°C° 0 mm 2 mps 774 mmHg 37%
    20:00 -2°C° 0 mm 2 mps 774 mmHg 37%
    21:00 -2°C° 0 mm 2 mps 773 mmHg 38%
    22:00 -2°C° 0 mm 2 mps 773 mmHg 38%
    23:00 -2°C° 0 mm 2 mps 773 mmHg 38%

    Tomorrow, 24 February, Sunday

    Time Temperature Precipitation Wind Pressure Humidity
    00:00 -2°C° 0 mm 2 mps 773 mmHg 37%
    01:00 0°C° 0 mm 1 mps 773 mmHg 37%
    02:00 0°C° 0 mm 1 mps 773 mmHg 36%
    03:00 0°C° 0 mm 1 mps 772 mmHg 35%
    04:00 +1°C° 0 mm 1 mps 772 mmHg 34%
    05:00 +1°C° 0 mm 1 mps 772 mmHg 34%
    06:00 +1°C° 0 mm 1 mps 772 mmHg 34%
    07:00 +1°C° 0 mm 1 mps 772 mmHg 34%
    08:00 +2°C° 0 mm 1 mps 772 mmHg 33%
    09:00 +2°C° 0 mm 2 mps 772 mmHg 32%
    10:00 +3°C° 0 mm 2 mps 772 mmHg 30%
    11:00 +4°C° 0 mm 2 mps 771 mmHg 30%
    12:00 +6°C° 0 mm 2 mps 771 mmHg 29%
    13:00 +7°C° 0 mm 3 mps 771 mmHg 29%
    14:00 +5°C° 0 mm 3 mps 771 mmHg 34%
    15:00 +6°C° 0 mm 2 mps 771 mmHg 39%
    16:00 +6°C° 0 mm 2 mps 770 mmHg 44%
    17:00 +5°C° 0 mm 2 mps 770 mmHg 48%
    18:00 +4°C° 0 mm 2 mps 771 mmHg 52%
    19:00 +2°C° 0 mm 3 mps 771 mmHg 55%
    20:00 +1°C° 0 mm 3 mps 771 mmHg 58%
    21:00 +1°C° 0 mm 3 mps 771 mmHg 61%
    22:00 +1°C° 0 mm 3 mps 771 mmHg 63%
    23:00 +1°C° 0 mm 3 mps 771 mmHg 65%

    Day after tomorrow, 25 February, Monday

    Time Temperature Precipitation Wind Pressure Humidity
    00:00 0°C° 0 mm 3 mps 771 mmHg 67%
    01:00 0°C° 0 mm 3 mps 771 mmHg 69%
    02:00 0°C° 0 mm 3 mps 771 mmHg 70%
    03:00 0°C° 0 mm 3 mps 770 mmHg 72%
    04:00 0°C° 0 mm 3 mps 770 mmHg 73%
    05:00 0°C° 0 mm 3 mps 770 mmHg 74%
    06:00 0°C° 0 mm 3 mps 770 mmHg 75%
    07:00 -1°C° 0 mm 3 mps 770 mmHg 77%
    08:00 +1°C° 0 mm 3 mps 770 mmHg 73%
    09:00 +1°C° 0 mm 4 mps 770 mmHg 69%
    10:00 +4°C° 0 mm 4 mps 770 mmHg 65%
    11:00 +5°C° 0 mm 4 mps 770 mmHg 64%
    12:00 +7°C° 0 mm 4 mps 770 mmHg 63%
    13:00 +8°C° 0 mm 4 mps 769 mmHg 62%
    14:00 +8°C° 0 mm 4 mps 769 mmHg 62%
    15:00 +8°C° 0 mm 4 mps 769 mmHg 63%
    16:00 +8°C° 0 mm 4 mps 768 mmHg 64%
    17:00 +8°C° 0 mm 3 mps 768 mmHg 70%
    18:00 +7°C° 0 mm 3 mps 768 mmHg 76%
    19:00 +5°C° 0 mm 3 mps 768 mmHg 82%
    20:00 +4°C° 0 mm 3 mps 768 mmHg 85%
    21:00 +4°C° 0 mm 3 mps 768 mmHg 87%
    22:00 +3°C° 0 mm 3 mps 768 mmHg 89%
    23:00 +3°C° 0 mm 3 mps 768 mmHg 91%

    26 February, Tuesday

    Time Temperature Precipitation Wind Pressure Humidity
    00:00 +3°C° 0 mm 3 mps 768 mmHg 92%
    01:00 +3°C° 0 mm 3 mps 768 mmHg 93%
    02:00 +3°C° 0 mm 4 mps 767 mmHg 93%
    03:00 +3°C° 0 mm 4 mps 767 mmHg 94%
    04:00 +3°C° 0 mm 4 mps 766 mmHg 94%
    05:00 +3°C° 0 mm 4 mps 766 mmHg 93%
    06:00 +3°C° 0 mm 4 mps 766 mmHg 93%
    07:00 +1°C° 0 mm 5 mps 766 mmHg 93%
    08:00 +3°C° 0 mm 5 mps 766 mmHg 87%
    09:00 +5°C° 0 mm 5 mps 766 mmHg 80%
    10:00 +5°C° 0 mm 6 mps 765 mmHg 74%
    11:00 +7°C° 0 mm 6 mps 765 mmHg 68%
    12:00 +8°C° 0 mm 6 mps 765 mmHg 62%
    13:00 +10°C° 0 mm 6 mps 765 mmHg 57%
    14:00 +10°C° 0 mm 6 mps 765 mmHg 56%
    15:00 +10°C° 0 mm 5 mps 764 mmHg 56%
    16:00 +10°C° 0 mm 5 mps 764 mmHg 56%
    17:00 +10°C° 0 mm 4 mps 764 mmHg 60%
    18:00 +8°C° 0 mm 4 mps 765 mmHg 65%
    19:00 +8°C° 0 mm 3 mps 765 mmHg 70%
    20:00 +7°C° 0 mm 3 mps 765 mmHg 72%
    21:00 +5°C° 0 mm 3 mps 765 mmHg 75%
    22:00 +5°C° 0 mm 3 mps 765 mmHg 77%
    23:00 +4°C° 0 mm 3 mps 765 mmHg 79%

    27 February, Wednesday

    Time Temperature Precipitation Wind Pressure Humidity
    00:00 +4°C° 0 mm 3 mps 765 mmHg 80%
    01:00 +3°C° 0 mm 3 mps 765 mmHg 81%
    02:00 +3°C° 0 mm 3 mps 764 mmHg 83%
    03:00 +3°C° 0 mm 3 mps 764 mmHg 85%
    04:00 +2°C° 0 mm 3 mps 764 mmHg 87%
    05:00 +2°C° 0 mm 3 mps 764 mmHg 88%
    06:00 +2°C° 0 mm 3 mps 764 mmHg 88%
    07:00 +2°C° 0 mm 3 mps 763 mmHg 89%
    08:00 +3°C° 0 mm 4 mps 763 mmHg 82%
    09:00 +4°C° 0 mm 4 mps 763 mmHg 75%
    10:00 +6°C° 0 mm 5 mps 763 mmHg 68%
    11:00 +7°C° 0 mm 5 mps 762 mmHg 63%
    12:00 +9°C° 0 mm 5 mps 762 mmHg 58%
    13:00 +10°C° 0 mm 5 mps 762 mmHg 53%
    14:00 +12°C° 0 mm 5 mps 761 mmHg 53%
    15:00 +12°C° 0 mm 5 mps 760 mmHg 53%
    16:00 +12°C° 0 mm 4 mps 760 mmHg 52%
    17:00 +11°C° 0 mm 4 mps 760 mmHg 59%
    18:00 +8°C° 0 mm 4 mps 760 mmHg 65%
    19:00 +8°C° 0 mm 3 mps 760 mmHg 71%
    20:00 +7°C° 0 mm 3 mps 759 mmHg 74%
    21:00 +7°C° 0 mm 3 mps 759 mmHg 77%
    22:00 +5°C° 0 mm 3 mps 758 mmHg 80%
    23:00 +5°C° 0 mm 3 mps 758 mmHg 79%

    28 February, Thursday

    Time Temperature Precipitation Wind Pressure Humidity
    00:00 +5°C° 0 mm 3 mps 757 mmHg 77%
    01:00 +5°C° 0 mm 3 mps 757 mmHg 75%
    02:00 +5°C° 0 mm 4 mps 756 mmHg 72%
    03:00 +5°C° 0 mm 4 mps 755 mmHg 68%
    04:00 +5°C° 0 mm 5 mps 754 mmHg 65%
    05:00 +5°C° 0 mm 5 mps 754 mmHg 66%
    06:00 +5°C° 0 mm 5 mps 753 mmHg 67%
    07:00 +4°C° 0 mm 6 mps 752 mmHg 67%
    08:00 +5°C° 0 mm 7 mps 752 mmHg 68%
    09:00 +6°C° 0 mm 8 mps 752 mmHg 68%
    10:00 +7°C° 0 mm 9 mps 752 mmHg 69%
    11:00 +7°C° 0 mm 9 mps 752 mmHg 72%
    12:00 +7°C° 0 mm 9 mps 752 mmHg 74%
    13:00 +7°C° 0 mm 9 mps 752 mmHg 77%
    14:00 +7°C° 0 mm 8 mps 752 mmHg 77%
    15:00 +7°C° 0 mm 8 mps 752 mmHg 77%
    16:00 +7°C° 0 mm 8 mps 752 mmHg 77%
    17:00 +7°C° 0.1 mm 8 mps 752 mmHg 77%
    18:00 +6°C° 0.1 mm 8 mps 752 mmHg 77%
    19:00 +6°C° 0.1 mm 8 mps 753 mmHg 77%
    20:00 +6°C° 0.1 mm 7 mps 753 mmHg 78%
    21:00 +6°C° 0.1 mm 7 mps 753 mmHg 78%
    22:00 +7°C° 0.1 mm 6 mps 753 mmHg 79%
    23:00 +7°C° 0.1 mm 6 mps 753 mmHg 80%
    Show more